Waarnemingen

Advertentie
Mijn weer
Hoogeveen aws, Nederland (6279): temperatuur & dauwpunt: 20.09.2017 02:00:00 - 26.09.2017 02:00:00 (CEST)Hoogeveen aws, Nederland (6279): temperatuur 5cm: 20.09.2017 02:00:00 - 26.09.2017 02:00:00 (CEST)Hoogeveen aws, Nederland (6279): windsnelheid & windstoten: 20.09.2017 02:00:00 - 26.09.2017 02:00:00 (CEST)Hoogeveen aws, Nederland (6279): windrichting: 20.09.2017 02:00:00 - 26.09.2017 02:00:00 (CEST)Hoogeveen aws, Nederland (6279): luchtdruk: 20.09.2017 02:00:00 - 26.09.2017 02:00:00 (CEST)Hoogeveen aws, Nederland (6279): zicht: 20.09.2017 02:00:00 - 26.09.2017 02:00:00 (CEST)Hoogeveen aws, Nederland (6279): neerslag: 20.09.2017 02:00:00 - 26.09.2017 02:00:00 (CEST)
Datum & Tijd tt [°C] td [°C] tt 5cm [°C] ff [km/u] ff [kn] fx [km/u] fx [kn] dd ppp [hPa] vv [km] rr [mm]
26.09.2017 02:00:00 - - - - - - - - - - -
26.09.2017 01:00:00 12,2 11,4 11,0 11 6 14 8 NO 1022,0 11 0,0
26.09.2017 00:00:00 13,1 12,6 12,5 7 4 11 6 NO 1022,1 5 0,0
25.09.2017 23:00:00 13,1 12,6 12,1 7 4 14 8 NO 1022,2 3,9 0,0
25.09.2017 22:00:00 13,6 13,1 12,8 11 6 14 8 NO 1022,4 4,7 0,0
25.09.2017 21:00:00 12,8 12,7 10,7 4 2 11 6 NNO 1022,5 5 0,0
25.09.2017 20:00:00 13,2 12,6 12,0 7 4 7 4 N 1022,1 6 0,0
25.09.2017 19:00:00 15,7 14,4 15,4 4 2 11 6 NNO 1022,0 8 0,0
25.09.2017 18:00:00 15,9 14,3 15,8 7 4 14 8 NO 1021,9 9 0,0
25.09.2017 17:00:00 16,2 14,1 16,3 11 6 22 12 ONO 1021,9 9 0,0
25.09.2017 16:00:00 17,8 14,0 19,1 11 6 25 14 ONO 1021,8 12 0,0
25.09.2017 15:00:00 17,3 14,1 19,1 18 10 22 12 ONO 1022,1 10 0,0
25.09.2017 14:00:00 15,2 14,1 15,6 7 4 14 8 NO 1022,5 4,6 0,0
25.09.2017 13:00:00 14,7 13,2 14,8 7 4 14 8 O 1022,8 6 0,0
25.09.2017 12:00:00 14,1 13,0 14,1 11 6 18 10 O 1023,0 5 0,0
25.09.2017 11:00:00 13,7 13,2 13,9 7 4 22 12 ONO 1023,0 3,4 0,0
25.09.2017 10:00:00 13,6 12,6 13,5 11 6 18 10 O 1022,9 5 0,0
25.09.2017 09:00:00 13,5 12,9 13,3 11 6 18 10 ONO 1022,7 3,6 0,0
25.09.2017 08:00:00 13,3 13,0 13,0 7 4 18 10 ONO 1022,9 3,0 0,0
25.09.2017 07:00:00 13,2 12,8 12,9 11 6 18 10 ONO 1022,7 3,3 0,0
25.09.2017 06:00:00 13,3 13,2 13,1 7 4 11 6 ONO 1022,7 2,5 0,0
25.09.2017 05:00:00 11,7 11,6 10,2 4 2 11 6 NO 1022,7 0,3 0,0
25.09.2017 04:00:00 13,7 13,5 13,4 7 4 14 8 O 1022,9 3,3 0,0
25.09.2017 03:00:00 13,3 13,2 13,2 7 4 7 4 ONO 1023,3 2,4 0,0
25.09.2017 02:00:00 12,5 12,5 11,0 7 4 11 6 NO 1023,4 1,8 0,0
25.09.2017 01:00:00 13,1 12,8 12,3 7 4 11 6 NNO 1023,6 5 0,0
25.09.2017 00:00:00 12,7 12,4 11,5 7 4 7 4 NO 1023,9 6 0,0
24.09.2017 23:00:00 12,5 12,0 11,1 7 4 14 8 ONO 1023,9 10 0,0
24.09.2017 22:00:00 12,5 11,8 10,6 11 6 11 6 ONO 1023,8 15 0,0
24.09.2017 21:00:00 12,7 11,8 11,9 4 2 11 6 NNO 1023,8 18 0,0
24.09.2017 20:00:00 14,1 12,1 12,3 7 4 18 10 ONO 1023,6 24 0,0
24.09.2017 19:00:00 16,2 12,6 15,8 7 4 14 8 ONO 1023,2 45 0,0
24.09.2017 18:00:00 18,1 11,3 18,0 11 6 18 10 ONO 1023,2 46 0,0
24.09.2017 17:00:00 18,6 11,3 19,7 14 8 22 12 ONO 1023,3 37 0,0
24.09.2017 16:00:00 19,0 11,3 19,7 11 6 22 12 ONO 1023,5 33 0,0
24.09.2017 15:00:00 18,8 11,8 19,7 11 6 22 12 O 1023,8 27 0,0
24.09.2017 14:00:00 18,1 11,2 19,4 14 8 22 12 NO 1024,0 24 0,0
24.09.2017 13:00:00 17,4 12,4 19,8 7 4 18 10 O 1023,9 21 0,0
24.09.2017 12:00:00 16,7 12,6 18,8 11 6 14 8 ONO 1024,1 19 0,0
24.09.2017 11:00:00 14,3 12,9 14,8 7 4 11 6 O 1024,0 6 0,0
24.09.2017 10:00:00 10,6 10,6 11,1 4 2 7 4 ZO 1024,1 0,4 0,0
24.09.2017 09:00:00 9,4 9,3 10,0 4 2 7 4 ONO 1023,8 0,1 0,0
24.09.2017 08:00:00 9,2 9,1 9,3 4 2 7 4 ONO 1023,6 0,1 0,0
24.09.2017 07:00:00 9,3 9,3 9,4 4 2 7 4 N 1023,3 0,1 0,0
24.09.2017 06:00:00 9,8 9,7 9,8 4 2 7 4 NNO 1023,2 0,1 0,0
24.09.2017 05:00:00 9,9 9,8 9,6 7 4 11 6 NNO 1023,3 0,1 0,0
24.09.2017 04:00:00 7,5 7,3 6,2 4 2 7 4 NNO 1023,2 0,2 0,0
24.09.2017 03:00:00 7,4 7,2 5,6 4 2 7 4 NO 1023,4 0,2 0,0
24.09.2017 02:00:00 6,9 6,8 5,4 7 4 7 4 NO 1023,6 0,3 0,0
24.09.2017 01:00:00 7,0 6,7 5,8 4 2 7 4 NNO 1023,8 0,5 0,0
24.09.2017 00:00:00 7,9 7,8 6,1 4 2 7 4 NNO 1023,8 2,5 0,0
23.09.2017 23:00:00 9,3 9,2 6,3 4 2 7 4 NO 1023,8 17 0,0
23.09.2017 22:00:00 9,5 9,0 7,1 4 2 7 4 N 1023,9 38 0,0
23.09.2017 21:00:00 9,0 8,5 7,4 7 4 11 6 N 1024,0 37 0,0
23.09.2017 20:00:00 11,1 9,1 9,9 4 2 4 2 WNW 1023,8 14 0,0
23.09.2017 19:00:00 14,1 11,2 15,6 4 2 7 4 NW 1023,7 47 0,0
23.09.2017 18:00:00 17,6 8,3 17,7 4 2 11 6 ZZO 1023,5 47 0,0
23.09.2017 17:00:00 18,7 7,7 19,1 4 2 11 6 ZW 1023,6 46 0,0
23.09.2017 16:00:00 18,0 7,3 19,2 4 2 11 6 OZO 1023,9 46 0,0
23.09.2017 15:00:00 18,2 7,1 18,8 4 2 14 8 ZW 1024,3 48 0,0
23.09.2017 14:00:00 17,9 9,8 19,6 4 2 11 6 Z 1024,6 39 0,0
23.09.2017 13:00:00 17,0 9,1 18,7 4 2 14 8 ZZO 1024,8 39 0,0
23.09.2017 12:00:00 15,6 9,5 17,3 4 2 7 4 WNW 1025,0 37 0,0
23.09.2017 11:00:00 14,6 9,9 15,7 4 2 11 6 NNW 1025,2 32 0,0
23.09.2017 10:00:00 12,6 10,0 13,7 4 2 7 4 NW 1025,0 22 0,0
23.09.2017 09:00:00 9,8 9,5 9,7 0 0 4 2 N 1024,5 5 0,0
23.09.2017 08:00:00 6,0 6,0 4,9 4 2 7 4 ZW 1024,1 0,2 0,0
23.09.2017 07:00:00 6,4 6,2 4,4 4 2 7 4 W 1023,8 0,2 0,0
23.09.2017 06:00:00 8,2 8,1 5,4 4 2 11 6 NW 1023,7 3,6 0,0
23.09.2017 05:00:00 8,0 7,8 6,5 11 6 11 6 NW 1023,6 3,1 0,0
23.09.2017 04:00:00 9,1 9,0 7,3 4 2 7 4 NNW 1023,4 0,4 0,0
23.09.2017 03:00:00 10,3 10,2 9,6 7 4 11 6 WNW 1023,4 0,2 0,0
23.09.2017 02:00:00 11,0 10,9 10,5 4 2 7 4 W 1023,2 1,1 0,0
23.09.2017 01:00:00 10,2 10,0 8,4 4 2 7 4 W 1023,0 0,1 0,0
23.09.2017 00:00:00 10,9 10,8 9,4 4 2 7 4 NNW 1022,7 0,1 0,0
22.09.2017 23:00:00 12,2 12,1 10,6 4 2 7 4 W 1022,6 2,2 0,0
22.09.2017 22:00:00 12,9 12,3 12,5 7 4 11 6 N 1021,8 6 0,0
22.09.2017 21:00:00 14,6 13,2 14,3 7 4 11 6 NNW 1021,8 8 0,0
22.09.2017 20:00:00 15,1 13,5 14,7 4 2 14 8 NW 1021,3 8 0,0
22.09.2017 19:00:00 15,5 13,0 15,2 7 4 11 6 NNW 1020,7 18 0,0
22.09.2017 18:00:00 16,5 12,3 16,0 7 4 14 8 W 1020,4 19 0,0
22.09.2017 17:00:00 17,6 12,6 17,6 7 4 11 6 WNW 1020,2 23 0,0
22.09.2017 16:00:00 19,4 11,2 20,3 7 4 14 8 W 1020,2 30 0,0
22.09.2017 15:00:00 18,9 12,4 20,0 7 4 14 8 ZZW 1020,1 15 0,0
22.09.2017 14:00:00 17,6 12,2 18,2 7 4 11 6 ZW 1020,0 13 0,0
22.09.2017 13:00:00 18,3 11,7 19,7 4 2 11 6 ZZO 1020,0 13 0,0
22.09.2017 12:00:00 16,8 12,2 17,8 7 4 11 6 ZO 1020,1 7 0,0
22.09.2017 11:00:00 14,9 12,2 16,2 7 4 7 4 OZO 1020,1 9 0,0
22.09.2017 10:00:00 12,6 10,9 13,4 7 4 11 6 ZO 1020,2 6 0,0
22.09.2017 09:00:00 10,1 9,8 9,6 4 2 7 4 OZO 1019,9 2,2 0,0
22.09.2017 08:00:00 7,4 7,3 7,1 4 2 4 2 OZO 1019,6 0,3 0,0
22.09.2017 07:00:00 7,6 7,5 6,8 4 2 7 4 OZO 1019,3 0,2 0,0
22.09.2017 06:00:00 8,0 7,9 6,4 0 0 4 2 N 1019,3 0,1 0,0
22.09.2017 05:00:00 8,7 8,2 7,4 4 2 7 4 O 1019,3 1,6 0,0
22.09.2017 04:00:00 10,1 9,8 9,3 4 2 7 4 OZO 1019,2 2,6 0,0
22.09.2017 03:00:00 9,7 9,5 9,0 4 2 7 4 O 1019,6 3,1 0,0
22.09.2017 02:00:00 8,7 8,6 7,4 4 2 7 4 OZO 1019,8 3,1 0,0
22.09.2017 01:00:00 8,8 8,7 7,5 4 2 4 2 O 1019,9 1,6 0,0
22.09.2017 00:00:00 9,4 9,2 7,9 4 2 4 2 ONO 1020,1 5 0,0
21.09.2017 23:00:00 9,6 9,4 8,6 4 2 7 4 O 1020,0 6 0,0
21.09.2017 22:00:00 10,6 10,5 9,4 4 2 4 2 OZO 1020,0 11 0,0
21.09.2017 21:00:00 11,2 10,8 9,8 4 2 4 2 O 1020,0 12 0,0
21.09.2017 20:00:00 12,6 11,9 11,4 0 0 4 2 N 1019,7 13 0,0
21.09.2017 19:00:00 15,7 11,6 14,5 4 2 11 6 ZZO 1019,5 39 0,0
21.09.2017 18:00:00 16,8 11,1 16,3 7 4 18 10 ZZO 1019,4 39 0,0
21.09.2017 17:00:00 18,0 11,2 18,3 11 6 18 10 ZZO 1019,3 39 0,0
21.09.2017 16:00:00 18,2 11,1 18,9 14 8 25 14 Z 1019,5 42 0,0
21.09.2017 15:00:00 18,5 10,6 19,3 18 10 29 16 ZZW 1019,5 30 0,0
21.09.2017 14:00:00 18,1 10,6 19,5 18 10 29 16 Z 1019,7 36 0,0
21.09.2017 13:00:00 17,5 11,1 18,8 18 10 29 16 Z 1020,1 29 0,0
21.09.2017 12:00:00 17,4 12,1 18,6 14 8 22 12 Z 1020,2 30 0,0
21.09.2017 11:00:00 15,8 11,6 17,0 11 6 14 8 Z 1020,6 22 0,0
21.09.2017 10:00:00 13,8 10,8 14,5 11 6 18 10 Z 1020,5 17 0,0
21.09.2017 09:00:00 12,0 10,3 11,9 11 6 14 8 Z 1020,2 11 0,0
21.09.2017 08:00:00 11,4 10,3 11,1 7 4 11 6 Z 1019,9 7 0,0
21.09.2017 07:00:00 11,5 10,3 11,1 7 4 14 8 Z 1019,8 8 0,0
21.09.2017 06:00:00 11,7 10,4 11,3 11 6 14 8 Z 1019,5 8 0,0
21.09.2017 05:00:00 11,8 10,4 11,4 11 6 18 10 Z 1019,6 8 0,0
21.09.2017 04:00:00 11,6 10,3 11,2 7 4 14 8 Z 1019,7 8 0,0
21.09.2017 03:00:00 11,7 10,3 11,0 7 4 11 6 Z 1019,6 8 0,0
21.09.2017 02:00:00 11,7 10,3 10,8 7 4 11 6 Z 1019,8 8 0,0
21.09.2017 01:00:00 11,6 10,4 10,9 4 2 14 8 Z 1019,7 9 0,0
21.09.2017 00:00:00 12,1 10,3 11,5 11 6 14 8 Z 1019,7 10 0,0
20.09.2017 23:00:00 11,5 10,2 10,8 11 6 14 8 Z 1019,6 11 0,0
20.09.2017 22:00:00 11,8 10,6 10,6 7 4 11 6 Z 1019,7 9 0,0
20.09.2017 21:00:00 11,2 10,1 9,8 7 4 11 6 ZZO 1019,7 9 0,0
20.09.2017 20:00:00 12,2 10,7 10,9 7 4 11 6 Z 1019,4 11 0,0
20.09.2017 19:00:00 13,5 10,9 12,8 7 4 14 8 Z 1019,2 18 0,0
20.09.2017 18:00:00 15,7 11,4 16,4 11 6 18 10 ZZW 1019,1 27 0,0
20.09.2017 17:00:00 14,5 11,0 14,3 11 6 22 12 ZW 1019,2 17 0,0
20.09.2017 16:00:00 14,8 11,0 14,6 11 6 29 16 ZW 1019,1 29 0,0
20.09.2017 15:00:00 16,0 11,2 15,8 14 8 25 14 ZW 1019,2 29 0,0
20.09.2017 14:00:00 15,6 11,0 16,2 18 10 25 14 ZZW 1019,3 31 0,0
20.09.2017 13:00:00 15,2 11,2 16,5 18 10 29 16 ZW 1019,4 26 0,0
20.09.2017 12:00:00 15,5 11,9 16,4 14 8 25 14 ZW 1019,4 32 0,0
20.09.2017 11:00:00 13,9 11,5 14,2 14 8 22 12 ZW 1019,5 30 0,0
20.09.2017 10:00:00 12,7 10,9 12,6 14 8 22 12 ZW 1019,3 24 0,0
20.09.2017 09:00:00 11,6 10,3 11,4 14 8 22 12 ZZW 1018,9 33 0,0
20.09.2017 08:00:00 11,0 9,9 10,7 11 6 18 10 ZZW 1019,0 22 0,0
20.09.2017 07:00:00 10,6 9,8 10,3 7 4 14 8 ZW 1019,0 26 0,0
20.09.2017 06:00:00 10,8 9,8 10,5 11 6 14 8 ZW 1018,8 31 0,0
20.09.2017 05:00:00 10,8 10,0 10,3 7 4 14 8 WZW 1019,0 34 0,0
20.09.2017 04:00:00 10,8 10,1 10,3 11 6 14 8 ZW 1019,0 26 0,0
20.09.2017 03:00:00 10,7 10,1 10,4 7 4 14 8 ZW 1019,0 23 0,0
20.09.2017 02:00:00 10,6 10,0 10,3 7 4 14 8 ZW 1019,3 18 0,0

tt = temperatuur
td = dauwpunt
tt 5cm = temperatuur 5cm
ff = windsnelheid
fx = windstoten
dd = windrichting
ppp = luchtdruk
vv = zicht
rr = neerslag

Weerstations in de omgeving